| time (UTC) | temp F | wind direction | speed knots | gust knots | rain 1hr in | rain 24hr in | rain mn in | humidity % | barometer mb |
| 20260507101359 | 55 | 343 | 2.6 | 4.3 | 0.00 | 0.28 | 0.16 | 87 | |
| 20260507101159 | 55 | 342 | 1.7 | 4.3 | 0.00 | 0.28 | 0.16 | 87 | |
| 20260507101005 | 55 | 48 | 1.7 | 4.3 | 0.00 | 0.28 | 0.16 | 87 | |
| 20260507100759 | 55 | 359 | 2.6 | 4.3 | 0.00 | 0.28 | 0.16 | 88 | |
| 20260507100600 | 55 | 354 | 1.7 | 4.3 | 0.00 | 0.28 | 0.16 | 88 | |
| 20260507100401 | 55 | 4 | 2.6 | 4.3 | 0.00 | 0.28 | 0.16 | 88 | |
| 20260507095558 | 55 | 4 | 1.7 | 4.3 | 0.00 | 0.28 | 0.16 | 89 | |
| 20260507095401 | 55 | 4 | 2.6 | 6.1 | 0.00 | 0.28 | 0.16 | 89 | |
| 20260507095158 | 55 | 8 | 1.7 | 6.1 | 0.00 | 0.28 | 0.16 | 89 | |
| 20260507095000 | 55 | 354 | 2.6 | 6.1 | 0.00 | 0.28 | 0.16 | 89 | |
| 20260507094757 | 55 | 354 | 3.5 | 6.1 | 0.00 | 0.28 | 0.16 | 88 | |
| 20260507094558 | 55 | 4 | 2.6 | 4.3 | 0.00 | 0.28 | 0.16 | 89 | |
| 20260507094358 | 55 | 345 | 1.7 | 4.3 | 0.00 | 0.28 | 0.16 | 89 | |
| 20260507094158 | 55 | 335 | 2.6 | 4.3 | 0.00 | 0.28 | 0.16 | 89 | |
| 20260507093757 | 55 | 349 | 0.9 | 2.6 | 0.00 | 0.28 | 0.16 | 89 | |
| 20260507093559 | 55 | 349 | 0.9 | 2.6 | 0.00 | 0.28 | 0.16 | 89 | |
| 20260507093358 | 55 | 349 | 1.7 | 2.6 | 0.00 | 0.28 | 0.16 | 89 | |
| 20260507093200 | 55 | 349 | 0.9 | 2.6 | 0.00 | 0.28 | 0.16 | 89 | |
| 20260507093001 | 55 | 348 | 0.9 | 2.6 | 0.00 | 0.28 | 0.16 | 89 | |
| 20260507092759 | 55 | 349 | 0.9 | 2.6 | 0.00 | 0.28 | 0.16 | 89 | |
| 20260507092558 | 55 | 349 | 1.7 | 2.6 | 0.00 | 0.28 | 0.16 | 89 | |
| 20260507092358 | 55 | 349 | 0.9 | 2.6 | 0.00 | 0.28 | 0.16 | 89 | |
| 20260507092158 | 55 | 349 | 0.0 | 4.3 | 0.00 | 0.28 | 0.16 | 89 | |
| 20260507092005 | 55 | 347 | 0.9 | 4.3 | 0.00 | 0.28 | 0.16 | 89 | |
| 20260507091558 | 55 | 33 | 1.7 | 4.3 | 0.00 | 0.28 | 0.16 | 88 | |
| 20260507091358 | 55 | 354 | 2.6 | 4.3 | 0.00 | 0.28 | 0.16 | 88 | |
| 20260507091158 | 55 | 350 | 0.9 | 6.1 | 0.00 | 0.28 | 0.16 | 88 | |
| 20260507090959 | 55 | 350 | 0.9 | 6.1 | 0.00 | 0.28 | 0.16 | 88 | |
| 20260507090758 | 55 | 350 | 1.7 | 6.1 | 0.00 | 0.28 | 0.16 | 88 | |
| 20260507090557 | 55 | 354 | 1.7 | 6.1 | 0.00 | 0.28 | 0.16 | 88 | |
| 20260507090357 | 55 | 350 | 2.6 | 6.1 | 0.00 | 0.28 | 0.16 | 88 | |
| 20260507090157 | 55 | 39 | 1.7 | 3.5 | 0.00 | 0.28 | 0.16 | 88 | |
| 20260507085959 | 55 | 39 | 1.7 | 3.5 | 0.00 | 0.28 | 0.16 | 88 | |
| 20260507085558 | 55 | 359 | 0.9 | 2.6 | 0.00 | 0.28 | 0.16 | 88 | |
| 20260507085359 | 56 | 359 | 0.9 | 3.5 | 0.00 | 0.28 | 0.16 | 88 | |
| 20260507085158 | 56 | 359 | 1.7 | 5.2 | 0.00 | 0.28 | 0.16 | 88 | |
| 20260507084958 | 56 | 359 | 1.7 | 5.2 | 0.00 | 0.28 | 0.16 | 88 | |
| 20260507084557 | 56 | 359 | 2.6 | 5.2 | 0.00 | 0.28 | 0.16 | 87 | |
| 20260507084358 | 56 | 43 | 3.5 | 5.2 | 0.00 | 0.28 | 0.16 | 87 | |
| 20260507084158 | 56 | 359 | 1.7 | 5.2 | 0.00 | 0.28 | 0.16 | 87 | |
| 20260507084000 | 56 | 354 | 1.7 | 7.0 | 0.00 | 0.28 | 0.16 | 87 | |
| 20260507083759 | 56 | 16 | 2.6 | 7.0 | 0.00 | 0.28 | 0.16 | 88 | |
| 20260507083557 | 56 | 341 | 2.6 | 7.0 | 0.00 | 0.28 | 0.16 | 88 | |
| 20260507083358 | 56 | 4 | 2.6 | 7.0 | 0.00 | 0.28 | 0.16 | 87 | |
| 20260507082959 | 56 | 350 | 3.5 | 7.0 | 0.00 | 0.28 | 0.16 | 87 | |
| 20260507082758 | 56 | 359 | 3.5 | 7.0 | 0.00 | 0.28 | 0.16 | 88 | |
| 20260507082558 | 56 | 14 | 1.7 | 7.0 | 0.00 | 0.28 | 0.16 | 88 | |
| 20260507082359 | 56 | 11 | 4.3 | 7.0 | 0.00 | 0.28 | 0.16 | 88 | |
| 20260507082158 | 56 | 334 | 3.5 | 6.1 | 0.00 | 0.28 | 0.16 | 88 | |
| 20260507081959 | 56 | 10 | 1.7 | 5.2 | 0.00 | 0.28 | 0.16 | 88 | |
| 20260507081558 | 56 | 12 | 1.7 | 5.2 | 0.00 | 0.28 | 0.16 | 89 | |
| 20260507081357 | 56 | 344 | 2.6 | 5.2 | 0.00 | 0.28 | 0.16 | 89 | |
| 20260507081200 | 56 | 13 | 2.6 | 5.2 | 0.00 | 0.28 | 0.16 | 88 | |
| 20260507080759 | 56 | 350 | 1.7 | 5.2 | 0.00 | 0.28 | 0.16 | 88 | |
| 20260507080358 | 56 | 348 | 1.7 | 6.1 | 0.00 | 0.28 | 0.16 | 88 | |
| 20260507080159 | 57 | 346 | 3.5 | 6.1 | 0.00 | 0.28 | 0.16 | 88 | |
| 20260507080006 | 57 | 359 | 3.5 | 6.1 | 0.00 | 0.28 | 0.16 | 88 | |
| 20260507075758 | 57 | 4 | 3.5 | 6.1 | 0.00 | 0.28 | 0.16 | 88 | |
| 20260507075359 | 57 | 309 | 2.6 | 6.1 | 0.00 | 0.28 | 0.16 | 88 | |
| 20260507075159 | 57 | 345 | 2.6 | 6.1 | 0.00 | 0.28 | 0.16 | 88 | |
| 20260507074759 | 57 | 354 | 2.6 | 6.1 | 0.00 | 0.28 | 0.16 | 88 | |
| 20260507074559 | 57 | 43 | 3.5 | 6.1 | 0.00 | 0.28 | 0.16 | 88 | |
| 20260507074400 | 57 | 359 | 3.5 | 6.1 | 0.00 | 0.28 | 0.16 | 88 | |
| 20260507073800 | 57 | 342 | 2.6 | 7.8 | 0.00 | 0.28 | 0.16 | 88 | |
| 20260507073600 | 57 | 18 | 2.6 | 7.8 | 0.00 | 0.28 | 0.16 | 89 | |
| 20260507073400 | 57 | 4 | 4.3 | 7.8 | 0.00 | 0.28 | 0.16 | 88 | |
| 20260507073200 | 57 | 359 | 4.3 | 7.8 | 0.00 | 0.28 | 0.16 | 89 | |
| 20260507073004 | 57 | 341 | 3.5 | 11.3 | 0.00 | 0.28 | 0.16 | 88 | |
| 20260507072759 | 57 | 8 | 4.3 | 11.3 | 0.00 | 0.28 | 0.16 | 88 | |
| 20260507072401 | 57 | 347 | 6.1 | 11.3 | 0.00 | 0.28 | 0.16 | 88 | |
| 20260507072158 | 57 | 8 | 2.6 | 7.0 | 0.00 | 0.28 | 0.16 | 89 | |
| 20260507072005 | 57 | 4 | 3.5 | 7.0 | 0.00 | 0.28 | 0.16 | 89 | |
| 20260507071759 | 57 | 8 | 3.5 | 7.8 | 0.00 | 0.28 | 0.16 | 90 | |
| 20260507071559 | 57 | 333 | 3.5 | 7.8 | 0.00 | 0.28 | 0.16 | 90 | |
| 20260507071359 | 57 | 12 | 3.5 | 7.8 | 0.00 | 0.28 | 0.16 | 90 | |
| 20260507071159 | 57 | 18 | 4.3 | 7.8 | 0.00 | 0.28 | 0.16 | 90 | |
| 20260507071001 | 57 | 335 | 3.5 | 7.8 | 0.00 | 0.28 | 0.16 | 91 | |
| 20260507070759 | 57 | 345 | 4.3 | 7.8 | 0.00 | 0.28 | 0.16 | 91 | |
| 20260507070559 | 57 | 354 | 4.3 | 7.0 | 0.00 | 0.28 | 0.16 | 91 | |
| 20260507070359 | 57 | 308 | 3.5 | 5.2 | 0.00 | 0.28 | 0.16 | 92 | |
| 20260507070200 | 57 | 4 | 2.6 | 6.1 | 0.00 | 0.28 | 0.16 | 93 | |
| 20260507070000 | 57 | 8 | 2.6 | 6.1 | 0.00 | 0.28 | 0.16 | 93 | |
| 20260507065759 | 57 | 341 | 1.7 | 6.1 | 0.00 | 0.28 | 0.16 | 93 | |
| 20260507065559 | 57 | 332 | 1.7 | 6.1 | 0.00 | 0.28 | 0.16 | 93 | |
| 20260507065358 | 57 | 359 | 3.5 | 6.1 | 0.00 | 0.28 | 0.16 | 93 | |
| 20260507065200 | 57 | 349 | 1.7 | 7.0 | 0.00 | 0.28 | 0.16 | 93 | |
| 20260507065000 | 57 | 315 | 2.6 | 7.0 | 0.00 | 0.28 | 0.16 | 93 | |
| 20260507064758 | 58 | 35 | 2.6 | 7.8 | 0.00 | 0.28 | 0.16 | 93 | |
| 20260507064559 | 57 | 359 | 3.5 | 7.8 | 0.00 | 0.28 | 0.16 | 93 | |
| 20260507064200 | 58 | 359 | 3.5 | 7.8 | 0.00 | 0.28 | 0.16 | 92 | |
| 20260507064001 | 58 | 4 | 3.5 | 7.8 | 0.01 | 0.28 | 0.16 | 92 | |
| 20260507063759 | 58 | 328 | 4.3 | 7.0 | 0.01 | 0.28 | 0.16 | 92 | |
| 20260507063559 | 58 | 306 | 3.5 | 7.0 | 0.01 | 0.28 | 0.16 | 92 | |
| 20260507063400 | 58 | 354 | 4.3 | 7.8 | 0.02 | 0.28 | 0.16 | 92 | |
| 20260507063158 | 58 | 354 | 4.3 | 7.8 | 0.02 | 0.28 | 0.16 | 92 | |
| 20260507063005 | 58 | 8 | 3.5 | 7.8 | 0.03 | 0.28 | 0.16 | 92 | |
| 20260507062759 | 58 | 8 | 4.3 | 8.7 | 0.03 | 0.28 | 0.16 | 92 | |
| 20260507062359 | 58 | 359 | 4.3 | 8.7 | 0.05 | 0.28 | 0.16 | 91 | |
| 20260507062201 | 58 | 8 | 5.2 | 8.7 | 0.06 | 0.28 | 0.16 | 91 | |
| 20260507061800 | 58 | 359 | 5.2 | 8.7 | 0.07 | 0.28 | 0.16 | 91 | |
| 20260507061600 | 58 | 350 | 4.3 | 7.0 | 0.08 | 0.28 | 0.16 | 91 | |
| 20260507061200 | 59 | 8 | 3.5 | 7.8 | 0.10 | 0.28 | 0.16 | 91 | |
| 20260507061004 | 59 | 9 | 3.5 | 7.8 | 0.11 | 0.28 | 0.16 | 91 | |
| 20260507060759 | 59 | 10 | 2.6 | 7.8 | 0.12 | 0.28 | 0.16 | 90 | |
| 20260507060559 | 59 | 359 | 3.5 | 7.8 | 0.13 | 0.28 | 0.16 | 90 | |
| 20260507060358 | 59 | 359 | 5.2 | 7.8 | 0.13 | 0.28 | 0.16 | 89 | |
| 20260507060006 | 59 | 343 | 2.6 | 7.0 | 0.13 | 0.28 | 0.16 | 90 | |
| 20260507055800 | 59 | 354 | 4.3 | 7.0 | 0.14 | 0.28 | 0.16 | 89 | |
| 20260507055558 | 59 | 317 | 4.3 | 7.0 | 0.14 | 0.28 | 0.16 | 89 | |
| 20260507055359 | 59 | 303 | 4.3 | 7.0 | 0.14 | 0.28 | 0.16 | 89 | |
| 20260507055159 | 59 | 339 | 2.6 | 5.2 | 0.14 | 0.28 | 0.16 | 89 | |
| 20260507054800 | 60 | 4 | 2.6 | 5.2 | 0.15 | 0.28 | 0.16 | 88 | |
| 20260507054559 | 60 | 8 | 2.6 | 7.0 | 0.15 | 0.28 | 0.16 | 88 | |
| 20260507054359 | 60 | 354 | 2.6 | 7.0 | 0.16 | 0.28 | 0.16 | 88 | |
| 20260507054201 | 60 | 349 | 0.9 | 7.0 | 0.16 | 0.28 | 0.16 | 88 | |
| 20260507054003 | 60 | 359 | 4.3 | 8.7 | 0.15 | 0.27 | 0.15 | 87 | |
| 20260507053802 | 60 | 347 | 4.3 | 8.7 | 0.15 | 0.27 | 0.15 | 87 | |
| 20260507053559 | 61 | 18 | 3.5 | 8.7 | 0.15 | 0.27 | 0.15 | 87 | |
| 20260507053400 | 61 | 59 | 3.5 | 8.7 | 0.14 | 0.26 | 0.14 | 87 | |
| 20260507053159 | 61 | 341 | 5.2 | 8.7 | 0.14 | 0.26 | 0.14 | 87 | |
| 20260507053002 | 62 | 4 | 5.2 | 8.7 | 0.13 | 0.25 | 0.13 | 88 | |
| 20260507052758 | 62 | 20 | 3.5 | 7.0 | 0.12 | 0.24 | 0.12 | 89 | |
| 20260507052600 | 62 | 9 | 4.3 | 7.0 | 0.12 | 0.24 | 0.12 | 89 | |
| 20260507052358 | 62 | 354 | 3.5 | 5.2 | 0.11 | 0.23 | 0.11 | 89 | |
| 20260507052159 | 62 | 13 | 1.7 | 3.5 | 0.10 | 0.22 | 0.10 | 89 | |
| 20260507052000 | 62 | 359 | 0.0 | 3.5 | 0.09 | 0.21 | 0.09 | 89 | |
| 20260507051800 | 63 | 359 | 0.0 | 3.5 | 0.09 | 0.21 | 0.09 | 88 | |
| 20260507051558 | 63 | 354 | 0.9 | 5.2 | 0.07 | 0.19 | 0.07 | 88 | |
| 20260507051359 | 63 | 333 | 0.0 | 5.2 | 0.06 | 0.18 | 0.06 | 87 | |
| 20260507051003 | 63 | 350 | 0.9 | 5.2 | 0.05 | 0.17 | 0.05 | 86 | |
| 20260507050759 | 63 | 4 | 2.6 | 5.2 | 0.04 | 0.16 | 0.04 | 86 | |
| 20260507050559 | 64 | 324 | 1.7 | 4.3 | 0.03 | 0.15 | 0.03 | 86 | |
| 20260507050359 | 64 | 324 | 0.0 | 4.3 | 0.03 | 0.15 | 0.03 | 85 | |
| 20260507050006 | 64 | 4 | 0.9 | 4.3 | 0.02 | 0.14 | 0.02 | 85 | |
| 20260507045759 | 64 | 328 | 0.0 | 0.9 | 0.02 | 0.14 | 0.02 | 84 | |
| 20260507045600 | 64 | 328 | 0.0 | 1.7 | 0.02 | 0.14 | 0.02 | 84 | |
| 20260507045200 | 65 | 328 | 0.0 | 3.5 | 0.02 | 0.14 | 0.02 | 83 | |
| 20260507045000 | 65 | 328 | 0.0 | 3.5 | 0.01 | 0.13 | 0.01 | 83 | |
| 20260507044759 | 65 | 328 | 0.9 | 3.5 | 0.01 | 0.13 | 0.01 | 81 | |
| 20260507044600 | 65 | 314 | 0.0 | 3.5 | 0.01 | 0.13 | 0.01 | 81 | |
| 20260507044359 | 65 | 301 | 0.9 | 6.1 | 0.00 | 0.12 | 0.00 | 81 | |
| 20260507044200 | 65 | 270 | 0.0 | 6.1 | 0.00 | 0.12 | 0.00 | 81 | |
| 20260507044005 | 65 | 272 | 0.9 | 6.1 | 0.00 | 0.12 | 0.00 | 80 | |
| 20260507043359 | 65 | 274 | 0.9 | 5.2 | 0.00 | 0.12 | 0.00 | 79 | |
| 20260507043159 | 65 | 322 | 0.0 | 7.0 | 0.00 | 0.12 | 0.00 | 78 | |
| 20260507043005 | 65 | 322 | 0.0 | 7.0 | 0.00 | 0.12 | 0.00 | 78 | |
| 20260507042600 | 65 | 328 | 2.6 | 7.0 | 0.00 | 0.12 | 0.00 | 78 | |
| 20260507042359 | 65 | 348 | 1.7 | 5.2 | 0.00 | 0.12 | 0.00 | 78 | |
| 20260507042159 | 65 | 354 | 2.6 | 5.2 | 0.00 | 0.12 | 0.00 | 78 | |
| 20260507041359 | 65 | 313 | 0.9 | 5.2 | 0.00 | 0.12 | 0.00 | 78 | |
| 20260507041158 | 65 | 302 | 0.9 | 5.2 | 0.00 | 0.12 | 0.00 | 78 | |
| 20260507040959 | 65 | 305 | 1.7 | 5.2 | 0.00 | 0.12 | 0.00 | 78 | |
| 20260507040600 | 65 | 330 | 0.9 | 5.2 | 0.00 | 0.12 | 0.00 | 78 | |
| 20260507040359 | 65 | 349 | 2.6 | 5.2 | 0.00 | 0.12 | 0.00 | 79 | |
| 20260507040200 | 65 | 324 | 1.7 | 6.1 | 0.00 | 0.12 | 0.00 | 79 | |
| 20260507035558 | 66 | 348 | 3.5 | 7.0 | 0.00 | 0.12 | 0.12 | 80 | |
| 20260507035358 | 66 | 8 | 3.5 | 7.0 | 0.00 | 0.12 | 0.12 | 80 | |
| 20260507035159 | 66 | 311 | 3.5 | 6.1 | 0.00 | 0.12 | 0.12 | 80 | |
| 20260507034558 | 66 | 27 | 3.5 | 8.7 | 0.00 | 0.12 | 0.12 | 81 | |
| 20260507034359 | 66 | 317 | 4.3 | 8.7 | 0.00 | 0.12 | 0.12 | 81 | |
| 20260507034158 | 66 | 14 | 5.2 | 8.7 | 0.00 | 0.12 | 0.12 | 82 | |
| 20260507034001 | 67 | 8 | 5.2 | 8.7 | 0.00 | 0.12 | 0.12 | 83 | |
| 20260507033558 | 67 | 10 | 5.2 | 8.7 | 0.00 | 0.12 | 0.12 | 85 | |
| 20260507033358 | 67 | 359 | 3.5 | 6.1 | 0.00 | 0.12 | 0.12 | 86 | |
| 20260507033157 | 67 | 4 | 2.6 | 6.1 | 0.00 | 0.12 | 0.12 | 87 | |
| 20260507032959 | 67 | 359 | 2.6 | 6.1 | 0.00 | 0.12 | 0.12 | 87 | |
| 20260507032758 | 67 | 13 | 2.6 | 6.1 | 0.00 | 0.12 | 0.12 | 87 | |
| 20260507032557 | 67 | 316 | 2.6 | 4.3 | 0.00 | 0.12 | 0.12 | 88 | |
| 20260507032158 | 67 | 338 | 1.7 | 3.5 | 0.00 | 0.12 | 0.12 | 88 | |
| 20260507031959 | 67 | 316 | 1.7 | 3.5 | 0.00 | 0.12 | 0.12 | 88 | |
| 20260507031758 | 67 | 322 | 0.9 | 2.6 | 0.00 | 0.12 | 0.12 | 88 | |
| 20260507031557 | 67 | 319 | 0.0 | 1.7 | 0.00 | 0.12 | 0.12 | 88 | |
| 20260507031358 | 67 | 319 | 0.0 | 1.7 | 0.00 | 0.12 | 0.12 | 88 | |
| 20260507031158 | 67 | 319 | 0.0 | 1.7 | 0.00 | 0.12 | 0.12 | 88 | |
| 20260507030758 | 67 | 322 | 0.0 | 0.9 | 0.00 | 0.12 | 0.12 | 88 | |
| 20260507030358 | 67 | 322 | 0.0 | 1.7 | 0.00 | 0.12 | 0.12 | 88 | |
| 20260507030158 | 67 | 322 | 0.0 | 1.7 | 0.00 | 0.12 | 0.12 | 88 | |
| 20260507025800 | 67 | 332 | 0.0 | 6.1 | 0.00 | 0.12 | 0.12 | 88 | |
| 20260507025558 | 67 | 332 | 0.0 | 6.1 | 0.00 | 0.12 | 0.12 | 88 | |
| 20260507025359 | 67 | 332 | 0.0 | 6.1 | 0.00 | 0.12 | 0.12 | 88 | |
| 20260507025200 | 67 | 332 | 1.7 | 6.1 | 0.00 | 0.12 | 0.12 | 88 | |
| 20260507025001 | 67 | 287 | 0.9 | 3.5 | 0.00 | 0.12 | 0.12 | 89 | |
| 20260507024759 | 67 | 278 | 1.7 | 3.5 | 0.00 | 0.12 | 0.12 | 89 | |
| 20260507024559 | 67 | 242 | 0.0 | 0.0 | 0.00 | 0.12 | 0.12 | 88 | |
| 20260507024359 | 67 | 241 | 0.0 | 0.0 | 0.00 | 0.12 | 0.12 | 88 | |
| 20260507024159 | 67 | 242 | 0.0 | 0.0 | 0.00 | 0.12 | 0.12 | 88 | |
| 20260507024005 | 67 | 242 | 0.0 | 0.0 | 0.00 | 0.12 | 0.12 | 88 | |
| 20260507023559 | 67 | 242 | 0.0 | 0.0 | 0.00 | 0.12 | 0.12 | 88 | |
| 20260507023400 | 67 | 242 | 0.0 | 0.0 | 0.00 | 0.12 | 0.12 | 88 | |
| 20260507023005 | 67 | 241 | 0.0 | 0.0 | 0.00 | 0.12 | 0.12 | 88 | |
| 20260507022559 | 67 | 242 | 0.0 | 0.0 | 0.00 | 0.12 | 0.12 | 88 | |
| 20260507022358 | 67 | 242 | 0.0 | 0.0 | 0.00 | 0.12 | 0.12 | 88 | |
| 20260507021559 | 67 | 242 | 0.0 | 0.0 | 0.00 | 0.12 | 0.12 | 87 | |
| 20260507021359 | 67 | 242 | 0.0 | 0.0 | 0.00 | 0.12 | 0.12 | 87 | |
| 20260507021158 | 67 | 241 | 0.0 | 0.0 | 0.00 | 0.12 | 0.12 | 87 | |
| 20260507021004 | 67 | 242 | 0.0 | 0.0 | 0.00 | 0.12 | 0.12 | 86 | |
| 20260507020558 | 67 | 242 | 0.0 | 0.0 | 0.00 | 0.12 | 0.12 | 86 | |
| 20260507020359 | 67 | 242 | 0.0 | 0.0 | 0.00 | 0.12 | 0.12 | 86 | |
| 20260507020159 | 67 | 242 | 0.0 | 0.0 | 0.00 | 0.12 | 0.12 | 86 | |
| 20260507020005 | 67 | 241 | 0.0 | 0.0 | 0.00 | 0.12 | 0.12 | 86 | |
| 20260507015759 | 67 | 241 | 0.0 | 0.0 | 0.00 | 0.12 | 0.12 | 86 | |
| 20260507015559 | 67 | 242 | 0.0 | 0.0 | 0.00 | 0.12 | 0.12 | 86 | |
| 20260507015359 | 67 | 242 | 0.0 | 0.0 | 0.00 | 0.12 | 0.12 | 86 | |
| 20260507015159 | 67 | 241 | 0.0 | 0.0 | 0.00 | 0.12 | 0.12 | 85 | |
| 20260507014758 | 67 | 242 | 0.0 | 0.0 | 0.00 | 0.12 | 0.12 | 85 | |
| 20260507014558 | 67 | 242 | 0.0 | 0.0 | 0.00 | 0.12 | 0.12 | 85 | |
| 20260507014359 | 67 | 242 | 0.0 | 0.0 | 0.00 | 0.12 | 0.12 | 85 | |
| 20260507014158 | 68 | 242 | 0.0 | 0.0 | 0.00 | 0.12 | 0.12 | 85 | |
| 20260507014001 | 68 | 242 | 0.0 | 0.0 | 0.00 | 0.12 | 0.12 | 85 | |
| 20260507013558 | 68 | 242 | 0.0 | 0.0 | 0.00 | 0.12 | 0.12 | 86 | |
| 20260507013159 | 68 | 242 | 0.0 | 0.0 | 0.00 | 0.12 | 0.12 | 85 | |
| 20260507012959 | 68 | 241 | 0.0 | 0.0 | 0.00 | 0.12 | 0.12 | 85 | |
| 20260507012759 | 68 | 241 | 0.0 | 0.0 | 0.00 | 0.12 | 0.12 | 85 | |
| 20260507012559 | 68 | 242 | 0.0 | 0.0 | 0.00 | 0.12 | 0.12 | 85 | |
| 20260507012358 | 68 | 241 | 0.0 | 0.0 | 0.00 | 0.12 | 0.12 | 85 | |
| 20260507012000 | 68 | 242 | 0.0 | 0.0 | 0.00 | 0.12 | 0.12 | 85 | |
| 20260507011759 | 68 | 242 | 0.0 | 0.0 | 0.00 | 0.12 | 0.12 | 85 | |
| 20260507011558 | 68 | 242 | 0.0 | 0.0 | 0.00 | 0.12 | 0.12 | 85 | |
| 20260507011358 | 68 | 242 | 0.0 | 0.0 | 0.00 | 0.12 | 0.12 | 85 | |
| 20260507011200 | 68 | 242 | 0.0 | 0.0 | 0.00 | 0.12 | 0.12 | 84 | |
| 20260507011003 | 68 | 242 | 0.0 | 0.0 | 0.00 | 0.12 | 0.12 | 84 | |
| 20260507010800 | 68 | 242 | 0.0 | 0.0 | 0.00 | 0.12 | 0.12 | 84 | |
| 20260507010559 | 68 | 242 | 0.0 | 0.0 | 0.00 | 0.12 | 0.12 | 84 | |
| 20260507010359 | 68 | 241 | 0.0 | 0.0 | 0.00 | 0.12 | 0.12 | 84 | |
| 20260507010200 | 68 | 241 | 0.0 | 0.0 | 0.00 | 0.12 | 0.12 | 84 | |
| 20260507010000 | 68 | 241 | 0.0 | 0.0 | 0.00 | 0.12 | 0.12 | 84 | |
| 20260507005759 | 68 | 242 | 0.0 | 0.0 | 0.00 | 0.12 | 0.12 | 84 | |
| 20260507005358 | 68 | 241 | 0.0 | 0.0 | 0.00 | 0.12 | 0.12 | 84 | |
| 20260507005158 | 68 | 241 | 0.0 | 0.0 | 0.00 | 0.12 | 0.12 | 83 | |
| 20260507004758 | 68 | 241 | 0.0 | 0.0 | 0.00 | 0.12 | 0.12 | 83 | |
| 20260507004559 | 68 | 242 | 0.0 | 0.0 | 0.00 | 0.12 | 0.12 | 83 | |
| 20260507004357 | 68 | 242 | 0.0 | 0.0 | 0.00 | 0.12 | 0.12 | 83 | |
| 20260507004159 | 68 | 242 | 0.0 | 0.0 | 0.00 | 0.12 | 0.12 | 83 | |
| 20260507003959 | 68 | 241 | 0.0 | 0.0 | 0.00 | 0.12 | 0.12 | 82 | |
| 20260507003758 | 68 | 242 | 0.0 | 0.0 | 0.00 | 0.12 | 0.12 | 82 | |
| 20260507003559 | 69 | 242 | 0.0 | 0.0 | 0.00 | 0.12 | 0.12 | 82 | |
| 20260507003358 | 69 | 242 | 0.0 | 0.0 | 0.00 | 0.12 | 0.12 | 82 | |
| 20260507003158 | 69 | 242 | 0.0 | 0.0 | 0.00 | 0.12 | 0.12 | 82 | |
| 20260507002959 | 69 | 242 | 0.0 | 0.0 | 0.00 | 0.12 | 0.12 | 82 | |
| 20260507002358 | 69 | 242 | 0.0 | 0.9 | 0.00 | 0.12 | 0.12 | 81 | |
| 20260507002158 | 69 | 242 | 0.0 | 0.9 | 0.00 | 0.12 | 0.12 | 82 | |
| 20260507001758 | 69 | 242 | 0.0 | 0.9 | 0.00 | 0.12 | 0.12 | 82 | |
| 20260507001558 | 69 | 242 | 0.0 | 0.9 | 0.00 | 0.12 | 0.12 | 81 | |
| 20260507001358 | 69 | 242 | 0.0 | 0.0 | 0.00 | 0.12 | 0.12 | 81 | |
| 20260507001157 | 69 | 242 | 0.0 | 0.0 | 0.00 | 0.12 | 0.12 | 81 | |
| 20260507000759 | 69 | 242 | 0.0 | 0.0 | 0.00 | 0.12 | 0.12 | 81 | |
| 20260507000557 | 69 | 242 | 0.0 | 0.0 | 0.00 | 0.12 | 0.12 | 81 | |
| 20260507000358 | 69 | 242 | 0.0 | 0.0 | 0.00 | 0.12 | 0.12 | 81 | |
| 20260507000158 | 69 | 241 | 0.0 | 0.0 | 0.00 | 0.12 | 0.12 | 81 | |
| 20260507000003 | 69 | 242 | 0.0 | 0.9 | 0.00 | 0.12 | 0.12 | 80 | |
| 20260506235759 | 69 | 242 | 0.0 | 1.7 | 0.00 | 0.12 | 0.12 | 80 | |
| 20260506235559 | 69 | 241 | 0.0 | 1.7 | 0.00 | 0.12 | 0.12 | 80 | |
| 20260506235400 | 70 | 242 | 0.0 | 1.7 | 0.00 | 0.12 | 0.12 | 80 | |
| 20260506235159 | 70 | 242 | 0.0 | 1.7 | 0.00 | 0.12 | 0.12 | 80 | |
| 20260506235001 | 70 | 242 | 0.0 | 1.7 | 0.00 | 0.12 | 0.12 | 80 | |
| 20260506234800 | 70 | 241 | 0.9 | 1.7 | 0.00 | 0.12 | 0.12 | 79 | |
| 20260506234558 | 70 | 242 | 0.0 | 1.7 | 0.00 | 0.12 | 0.12 | 79 | |
| 20260506234159 | 70 | 242 | 0.9 | 3.5 | 0.00 | 0.12 | 0.12 | 79 | |
| 20260506234001 | 70 | 241 | 0.9 | 3.5 | 0.00 | 0.12 | 0.12 | 79 | |
| 20260506233758 | 70 | 240 | 1.7 | 3.5 | 0.00 | 0.12 | 0.12 | 79 | |
| 20260506233559 | 70 | 240 | 1.7 | 4.3 | 0.00 | 0.12 | 0.12 | 79 | |
| 20260506233359 | 70 | 237 | 0.9 | 4.3 | 0.00 | 0.12 | 0.12 | 79 | |
| 20260506233158 | 70 | 237 | 0.9 | 4.3 | 0.00 | 0.12 | 0.12 | 78 | |
| 20260506232959 | 70 | 237 | 1.7 | 4.3 | 0.00 | 0.12 | 0.12 | 78 | |
| 20260506232557 | 70 | 240 | 0.9 | 4.3 | 0.00 | 0.12 | 0.12 | 78 | |
| 20260506232157 | 70 | 241 | 0.0 | 3.5 | 0.00 | 0.12 | 0.12 | 78 | |
| 20260506231959 | 71 | 241 | 0.9 | 3.5 | 0.00 | 0.12 | 0.12 | 78 | |
| 20260506231600 | 71 | 241 | 0.0 | 3.5 | 0.00 | 0.12 | 0.12 | 79 | |
| 20260506231358 | 71 | 241 | 0.0 | 3.5 | 0.00 | 0.12 | 0.12 | 78 | |
| 20260506231157 | 71 | 241 | 1.7 | 4.3 | 0.00 | 0.12 | 0.12 | 78 | |
| 20260506231000 | 71 | 239 | 0.9 | 4.3 | 0.00 | 0.12 | 0.12 | 79 | |
| 20260506230759 | 71 | 237 | 1.7 | 5.2 | 0.00 | 0.12 | 0.12 | 77 | |
| 20260506230558 | 71 | 233 | 1.7 | 5.2 | 0.00 | 0.12 | 0.12 | 77 | |
| 20260506230358 | 71 | 231 | 1.7 | 5.2 | 0.00 | 0.12 | 0.12 | 77 | |
| 20260506230003 | 71 | 239 | 0.9 | 4.3 | 0.00 | 0.12 | 0.12 | 77 | |
| 20260506225759 | 71 | 239 | 1.7 | 4.3 | 0.00 | 0.12 | 0.12 | 77 | |
| 20260506225359 | 71 | 201 | 1.7 | 5.2 | 0.00 | 0.12 | 0.12 | 77 | |
| 20260506225159 | 71 | 237 | 1.7 | 7.0 | 0.00 | 0.12 | 0.12 | 76 | |
| 20260506225001 | 71 | 234 | 1.7 | 7.8 | 0.00 | 0.12 | 0.12 | 77 | |
| 20260506224759 | 71 | 235 | 1.7 | 7.8 | 0.00 | 0.12 | 0.12 | 77 | |
| 20260506224558 | 71 | 227 | 0.9 | 7.8 | 0.00 | 0.12 | 0.12 | 77 | |
| 20260506224359 | 71 | 228 | 2.6 | 7.8 | 0.00 | 0.12 | 0.12 | 76 | |
| 20260506224200 | 71 | 228 | 3.5 | 7.8 | 0.00 | 0.12 | 0.12 | 76 | |
| 20260506224000 | 72 | 240 | 2.6 | 7.8 | 0.00 | 0.12 | 0.12 | 76 | |
| 20260506223800 | 72 | 237 | 3.5 | 7.8 | 0.00 | 0.12 | 0.12 | 76 | |
| 20260506223558 | 72 | 235 | 2.6 | 7.8 | 0.00 | 0.12 | 0.12 | 76 | |
| 20260506223400 | 72 | 217 | 3.5 | 7.8 | 0.00 | 0.12 | 0.12 | 76 | |
| 20260506223159 | 72 | 230 | 1.7 | 5.2 | 0.00 | 0.12 | 0.12 | 76 | |
| 20260506222759 | 72 | 237 | 1.7 | 7.0 | 0.00 | 0.12 | 0.12 | 77 | |
| 20260506222558 | 72 | 234 | 0.0 | 7.0 | 0.00 | 0.12 | 0.12 | 76 | |
| 20260506222359 | 72 | 234 | 3.5 | 7.0 | 0.00 | 0.12 | 0.12 | 76 | |
| 20260506222159 | 72 | 250 | 3.5 | 7.0 | 0.00 | 0.12 | 0.12 | 75 | |
| 20260506222007 | 72 | 236 | 2.6 | 7.0 | 0.00 | 0.12 | 0.12 | 76 | |
| 20260506221758 | 72 | 231 | 0.9 | 7.0 | 0.00 | 0.12 | 0.12 | 75 | |
| 20260506221600 | 72 | 230 | 0.9 | 7.8 | 0.00 | 0.12 | 0.12 | 76 | |
| 20260506221359 | 72 | 247 | 0.9 | 7.8 | 0.00 | 0.12 | 0.12 | 76 | |
| 20260506221159 | 72 | 247 | 2.6 | 7.8 | 0.00 | 0.12 | 0.12 | 75 | |
| 20260506220959 | 72 | 242 | 3.5 | 7.8 | 0.00 | 0.12 | 0.12 | 75 | |
| 20260506220757 | 72 | 227 | 2.6 | 7.0 | 0.00 | 0.12 | 0.12 | 75 | |
| 20260506220558 | 72 | 236 | 2.6 | 7.8 | 0.00 | 0.12 | 0.12 | 75 | |
| 20260506220358 | 72 | 231 | 2.6 | 7.8 | 0.00 | 0.12 | 0.12 | 74 | |
| 20260506220159 | 72 | 258 | 2.6 | 7.8 | 0.00 | 0.12 | 0.12 | 74 | |
| 20260506220005 | 73 | 235 | 3.5 | 7.8 | 0.00 | 0.12 | 0.12 | 74 | |
| 20260506215758 | 73 | 237 | 2.6 | 6.1 | 0.00 | 0.12 | 0.12 | 75 | |
| 20260506215559 | 73 | 228 | 1.7 | 6.1 | 0.00 | 0.12 | 0.12 | 75 | |
| 20260506215359 | 73 | 234 | 3.5 | 8.7 | 0.00 | 0.12 | 0.12 | 74 | |
| 20260506215159 | 73 | 245 | 3.5 | 8.7 | 0.00 | 0.12 | 0.12 | 74 | |
| 20260506215000 | 73 | 235 | 2.6 | 8.7 | 0.00 | 0.12 | 0.12 | 74 | |
| 20260506214759 | 73 | 237 | 3.5 | 8.7 | 0.00 | 0.12 | 0.12 | 74 | |
| 20260506214559 | 73 | 228 | 2.6 | 8.7 | 0.00 | 0.12 | 0.12 | 75 | |
| 20260506214358 | 73 | 185 | 2.6 | 10.4 | 0.00 | 0.12 | 0.12 | 75 | |
| 20260506214159 | 73 | 218 | 2.6 | 10.4 | 0.00 | 0.12 | 0.12 | 75 | |
| 20260506213959 | 73 | 240 | 3.5 | 10.4 | 0.00 | 0.12 | 0.12 | 74 | |
| 20260506213758 | 73 | 231 | 2.6 | 10.4 | 0.00 | 0.12 | 0.12 | 75 | |
| 20260506213559 | 73 | 237 | 3.5 | 10.4 | 0.00 | 0.12 | 0.12 | 74 | |
| 20260506213159 | 73 | 236 | 2.6 | 6.1 | 0.00 | 0.12 | 0.12 | 74 | |
| 20260506212559 | 73 | 243 | 0.9 | 7.8 | 0.00 | 0.12 | 0.12 | 75 | |
| 20260506212358 | 73 | 241 | 2.6 | 7.8 | 0.00 | 0.12 | 0.12 | 75 | |
| 20260506212200 | 73 | 237 | 3.5 | 7.8 | 0.00 | 0.12 | 0.12 | 75 | |
| 20260506211758 | 73 | 245 | 3.5 | 10.4 | 0.00 | 0.12 | 0.12 | 75 | |
| 20260506211359 | 73 | 238 | 5.2 | 10.4 | 0.00 | 0.12 | 0.12 | 74 | |
| 20260506211158 | 73 | 247 | 2.6 | 10.4 | 0.00 | 0.12 | 0.12 | 74 | |
| 20260506211004 | 73 | 239 | 2.6 | 10.4 | 0.00 | 0.12 | 0.12 | 76 | |
| 20260506210759 | 73 | 229 | 3.5 | 7.0 | 0.00 | 0.12 | 0.12 | 74 | |
| 20260506210559 | 73 | 258 | 3.5 | 7.0 | 0.00 | 0.12 | 0.12 | 75 | |
| 20260506210200 | 73 | 243 | 3.5 | 7.0 | 0.00 | 0.12 | 0.12 | 75 | |
| 20260506205758 | 73 | 223 | 0.9 | 9.6 | 0.00 | 0.12 | 0.12 | 75 | |
| 20260506205400 | 73 | 208 | 2.6 | 9.6 | 0.00 | 0.12 | 0.12 | 75 | |
| 20260506205159 | 73 | 244 | 3.5 | 9.6 | 0.00 | 0.12 | 0.12 | 74 | |
| 20260506205000 | 73 | 207 | 5.2 | 9.6 | 0.00 | 0.12 | 0.12 | 74 | |
| 20260506204558 | 73 | 216 | 1.7 | 8.7 | 0.00 | 0.12 | 0.12 | 75 | |
| 20260506204359 | 73 | 204 | 4.3 | 8.7 | 0.00 | 0.12 | 0.12 | 75 | |
| 20260506204159 | 73 | 214 | 2.6 | 7.0 | 0.00 | 0.12 | 0.12 | 76 | |
| 20260506203800 | 73 | 239 | 1.7 | 7.0 | 0.00 | 0.12 | 0.12 | 77 | |
| 20260506203559 | 73 | 199 | 0.9 | 7.0 | 0.00 | 0.12 | 0.12 | 78 | |
| 20260506203400 | 72 | 242 | 2.6 | 9.6 | 0.00 | 0.12 | 0.12 | 76 | |
| 20260506203157 | 72 | 226 | 2.6 | 9.6 | 0.00 | 0.12 | 0.12 | 76 | |
| 20260506203000 | 72 | 251 | 3.5 | 9.6 | 0.00 | 0.12 | 0.12 | 76 | |
| 20260506202759 | 72 | 226 | 1.7 | 9.6 | 0.00 | 0.12 | 0.12 | 76 | |
| 20260506202558 | 72 | 223 | 2.6 | 9.6 | 0.00 | 0.12 | 0.12 | 76 | |
| 20260506202359 | 72 | 235 | 1.7 | 8.7 | 0.00 | 0.12 | 0.12 | 77 | |
| 20260506202200 | 72 | 239 | 2.6 | 8.7 | 0.00 | 0.12 | 0.12 | 77 | |
| 20260506202000 | 72 | 280 | 2.6 | 8.7 | 0.00 | 0.12 | 0.12 | 77 | |
| 20260506201600 | 72 | 232 | 3.5 | 8.7 | 0.00 | 0.12 | 0.12 | 76 | |
| 20260506201359 | 72 | 251 | 2.6 | 8.7 | 0.00 | 0.12 | 0.12 | 76 | |
| 20260506200959 | 72 | 239 | 3.5 | 7.8 | 0.00 | 0.12 | 0.12 | 76 | |
| 20260506200600 | 72 | 240 | 3.5 | 9.6 | 0.00 | 0.12 | 0.12 | 76 | |
| 20260506200358 | 72 | 226 | 3.5 | 9.6 | 0.00 | 0.12 | 0.12 | 77 | |
| 20260506200200 | 72 | 249 | 4.3 | 14.8 | 0.00 | 0.12 | 0.12 | 75 | |
| 20260506200005 | 72 | 228 | 4.3 | 14.8 | 0.00 | 0.12 | 0.12 | 75 | |
| 20260506195759 | 72 | 287 | 4.3 | 14.8 | 0.00 | 0.12 | 0.12 | 75 | |
| 20260506195359 | 72 | 260 | 3.5 | 10.4 | 0.00 | 0.12 | 0.12 | 76 | |
| 20260506195001 | 72 | 241 | 2.6 | 11.3 | 0.00 | 0.12 | 0.12 | 75 | |
| 20260506194600 | 73 | 204 | 5.2 | 11.3 | 0.00 | 0.12 | 0.12 | 75 | |
| 20260506194400 | 73 | 244 | 3.5 | 11.3 | 0.00 | 0.12 | 0.12 | 75 | |
| 20260506194000 | 72 | 163 | 3.5 | 9.6 | 0.00 | 0.12 | 0.12 | 76 | |
| 20260506193758 | 72 | 223 | 3.5 | 9.6 | 0.00 | 0.12 | 0.12 | 77 | |
| 20260506193558 | 72 | 237 | 3.5 | 9.6 | 0.00 | 0.12 | 0.12 | 77 | |
| 20260506193359 | 72 | 211 | 4.3 | 9.6 | 0.00 | 0.12 | 0.12 | 76 | |
| 20260506192800 | 72 | 221 | 3.5 | 8.7 | 0.00 | 0.12 | 0.12 | 77 | |
| 20260506192600 | 72 | 298 | 2.6 | 8.7 | 0.00 | 0.12 | 0.12 | 78 | |
| 20260506192358 | 71 | 246 | 2.6 | 8.7 | 0.00 | 0.12 | 0.12 | 77 | |
| 20260506192159 | 71 | 237 | 3.5 | 7.8 | 0.00 | 0.12 | 0.12 | 77 | |
| 20260506192006 | 71 | 239 | 4.3 | 7.8 | 0.00 | 0.12 | 0.12 | 77 | |
| 20260506191759 | 71 | 224 | 2.6 | 7.0 | 0.00 | 0.12 | 0.12 | 76 | |
| 20260506191559 | 71 | 226 | 1.7 | 7.8 | 0.00 | 0.12 | 0.12 | 77 | |
| 20260506191358 | 71 | 190 | 1.7 | 10.4 | 0.00 | 0.12 | 0.12 | 77 | |
| 20260506191159 | 71 | 233 | 2.6 | 10.4 | 0.00 | 0.12 | 0.12 | 78 | |
| 20260506191000 | 71 | 206 | 2.6 | 10.4 | 0.00 | 0.12 | 0.12 | 77 | |
| 20260506190758 | 71 | 240 | 5.2 | 10.4 | 0.00 | 0.12 | 0.12 | 76 | |
| 20260506190559 | 71 | 249 | 4.3 | 8.7 | 0.00 | 0.12 | 0.12 | 77 | |
| 20260506190159 | 71 | 221 | 0.9 | 6.1 | 0.00 | 0.12 | 0.12 | 78 | |
| 20260506190005 | 71 | 179 | 1.7 | 8.7 | 0.00 | 0.12 | 0.12 | 78 | |
| 20260506185759 | 71 | 228 | 1.7 | 8.7 | 0.00 | 0.12 | 0.12 | 78 | |
| 20260506185600 | 71 | 229 | 0.0 | 9.6 | 0.00 | 0.12 | 0.12 | 77 | |
| 20260506185359 | 71 | 239 | 2.6 | 9.6 | 0.00 | 0.12 | 0.12 | 77 | |
| 20260506185200 | 71 | 176 | 2.6 | 12.2 | 0.00 | 0.12 | 0.12 | 76 | |
| 20260506185005 | 71 | 231 | 4.3 | 12.2 | 0.00 | 0.12 | 0.12 | 76 | |
| 20260506184759 | 71 | 242 | 3.5 | 12.2 | 0.00 | 0.12 | 0.12 | 77 | |
| 20260506184600 | 71 | 197 | 2.6 | 12.2 | 0.00 | 0.12 | 0.12 | 77 | |
| 20260506184359 | 71 | 224 | 3.5 | 12.2 | 0.00 | 0.12 | 0.12 | 77 | |
| 20260506184159 | 71 | 179 | 3.5 | 8.7 | 0.00 | 0.12 | 0.12 | 77 | |
| 20260506184000 | 71 | 222 | 2.6 | 8.7 | 0.00 | 0.12 | 0.12 | 77 | |
| 20260506183800 | 71 | 178 | 3.5 | 8.7 | 0.00 | 0.12 | 0.12 | 76 | |
| 20260506183559 | 71 | 184 | 3.5 | 8.7 | 0.00 | 0.12 | 0.12 | 77 | |
| 20260506183359 | 71 | 243 | 4.3 | 8.7 | 0.00 | 0.12 | 0.12 | 77 | |
| 20260506183200 | 71 | 231 | 3.5 | 9.6 | 0.00 | 0.12 | 0.12 | 77 | |
| 20260506183003 | 71 | 241 | 2.6 | 9.6 | 0.00 | 0.12 | 0.12 | 78 | |
| 20260506182801 | 71 | 216 | 1.7 | 9.6 | 0.00 | 0.12 | 0.12 | 78 | |
| 20260506182559 | 71 | 186 | 3.5 | 12.2 | 0.00 | 0.12 | 0.12 | 78 | |
| 20260506182359 | 71 | 204 | 3.5 | 12.2 | 0.00 | 0.12 | 0.12 | 77 | |
| 20260506182200 | 71 | 189 | 4.3 | 12.2 | 0.00 | 0.12 | 0.12 | 78 | |
| 20260506182001 | 71 | 227 | 4.3 | 12.2 | 0.00 | 0.12 | 0.12 | 78 | |
| 20260506181759 | 71 | 216 | 4.3 | 8.7 | 0.00 | 0.12 | 0.12 | 79 | |
| 20260506181559 | 71 | 187 | 3.5 | 8.7 | 0.00 | 0.12 | 0.12 | 78 | |
| 20260506181158 | 70 | 191 | 3.5 | 14.8 | 0.00 | 0.12 | 0.12 | 79 | |
| 20260506180759 | 70 | 237 | 2.6 | 14.8 | 0.00 | 0.12 | 0.12 | 81 | |
| 20260506180600 | 70 | 247 | 4.3 | 14.8 | 0.00 | 0.12 | 0.12 | 80 | |
| 20260506180359 | 70 | 217 | 3.5 | 10.4 | 0.00 | 0.12 | 0.12 | 80 | |
| 20260506180159 | 70 | 279 | 3.5 | 10.4 | 0.00 | 0.12 | 0.12 | 81 | |
| 20260506180007 | 69 | 266 | 5.2 | 10.4 | 0.00 | 0.12 | 0.12 | 81 | |
| 20260506175559 | 69 | 203 | 5.2 | 9.6 | 0.00 | 0.12 | 0.12 | 81 | |
| 20260506175359 | 69 | 220 | 3.5 | 9.6 | 0.00 | 0.12 | 0.12 | 82 | |
| 20260506175159 | 69 | 162 | 4.3 | 8.7 | 0.00 | 0.12 | 0.12 | 81 | |
| 20260506174759 | 69 | 243 | 2.6 | 10.4 | 0.00 | 0.12 | 0.12 | 83 | |
| 20260506174558 | 68 | 239 | 3.5 | 10.4 | 0.00 | 0.12 | 0.12 | 82 | |
| 20260506174158 | 68 | 181 | 2.6 | 14.8 | 0.00 | 0.12 | 0.12 | 83 | |
| 20260506174003 | 68 | 181 | 2.6 | 14.8 | 0.00 | 0.12 | 0.12 | 83 | |
| 20260506173759 | 68 | 230 | 6.1 | 14.8 | 0.00 | 0.12 | 0.12 | 83 | |
| 20260506173359 | 68 | 195 | 3.5 | 11.3 | 0.00 | 0.12 | 0.12 | 83 | |
| 20260506173158 | 68 | 240 | 4.3 | 11.3 | 0.00 | 0.12 | 0.12 | 83 | |
| 20260506173000 | 68 | 230 | 4.3 | 11.3 | 0.00 | 0.12 | 0.12 | 83 | |
| 20260506172759 | 68 | 238 | 3.5 | 10.4 | 0.00 | 0.12 | 0.12 | 85 | |
| 20260506172359 | 68 | 237 | 4.3 | 10.4 | 0.00 | 0.12 | 0.12 | 84 | |
| 20260506172158 | 68 | 241 | 3.5 | 10.4 | 0.00 | 0.12 | 0.12 | 84 | |
| 20260506172000 | 68 | 246 | 3.5 | 10.4 | 0.00 | 0.12 | 0.12 | 85 | |
| 20260506171759 | 67 | 175 | 1.7 | 9.6 | 0.00 | 0.12 | 0.12 | 87 | |
| 20260506171559 | 67 | 231 | 1.7 | 12.2 | 0.00 | 0.12 | 0.12 | 86 | |
| 20260506171358 | 67 | 215 | 2.6 | 12.2 | 0.00 | 0.12 | 0.12 | 86 | |
| 20260506171159 | 67 | 210 | 3.5 | 12.2 | 0.00 | 0.12 | 0.12 | 85 | |
| 20260506171005 | 67 | 228 | 4.3 | 12.2 | 0.00 | 0.12 | 0.12 | 85 | |
| 20260506170359 | 67 | 285 | 2.6 | 9.6 | 0.00 | 0.12 | 0.12 | 87 | |
| 20260506170159 | 67 | 212 | 3.5 | 9.6 | 0.00 | 0.12 | 0.12 | 88 | |
| 20260506170000 | 66 | 247 | 4.3 | 9.6 | 0.00 | 0.12 | 0.12 | 89 | |
| 20260506165800 | 66 | 233 | 1.7 | 9.6 | 0.00 | 0.12 | 0.12 | 89 | |
| 20260506165558 | 66 | 236 | 3.5 | 9.6 | 0.00 | 0.12 | 0.12 | 89 | |
| 20260506165400 | 66 | 206 | 4.3 | 9.6 | 0.00 | 0.12 | 0.12 | 89 | |
| 20260506165000 | 66 | 233 | 2.6 | 8.7 | 0.00 | 0.12 | 0.12 | 90 | |
| 20260506164759 | 66 | 232 | 3.5 | 8.7 | 0.00 | 0.12 | 0.12 | 90 | |
| 20260506164558 | 66 | 272 | 1.7 | 10.4 | 0.00 | 0.12 | 0.12 | 90 | |
| 20260506164159 | 65 | 235 | 2.6 | 10.4 | 0.01 | 0.12 | 0.12 | 89 | |
| 20260506163959 | 65 | 194 | 4.3 | 10.4 | 0.01 | 0.12 | 0.12 | 89 | |
| 20260506163759 | 65 | 145 | 3.5 | 9.6 | 0.01 | 0.12 | 0.12 | 90 | |
| 20260506163559 | 66 | 214 | 2.6 | 9.6 | 0.01 | 0.12 | 0.12 | 90 | |
| 20260506163159 | 65 | 183 | 1.7 | 7.8 | 0.01 | 0.12 | 0.12 | 91 | |
| 20260506163000 | 65 | 170 | 1.7 | 9.6 | 0.02 | 0.12 | 0.12 | 91 | |
| 20260506162759 | 65 | 205 | 2.6 | 9.6 | 0.02 | 0.12 | 0.12 | 91 | |
| 20260506162558 | 65 | 258 | 1.7 | 10.4 | 0.02 | 0.12 | 0.12 | 92 | |
| 20260506162359 | 65 | 227 | 4.3 | 10.4 | 0.02 | 0.12 | 0.12 | 92 | |
| 20260506162159 | 65 | 212 | 2.6 | 10.4 | 0.02 | 0.12 | 0.12 | 93 | |
| 20260506162002 | 65 | 191 | 3.5 | 10.4 | 0.02 | 0.12 | 0.12 | 93 | |
| 20260506161759 | 65 | 207 | 3.5 | 10.4 | 0.02 | 0.12 | 0.12 | 94 | |
| 20260506161559 | 65 | 241 | 3.5 | 7.0 | 0.02 | 0.12 | 0.12 | 94 | |
| 20260506161400 | 64 | 182 | 3.5 | 7.0 | 0.02 | 0.12 | 0.12 | 94 | |
| 20260506161158 | 64 | 199 | 1.7 | 5.2 | 0.02 | 0.12 | 0.12 | 94 | |
| 20260506161000 | 64 | 256 | 2.6 | 5.2 | 0.02 | 0.12 | 0.12 | 94 | |
| 20260506160359 | 64 | 172 | 0.9 | 7.0 | 0.02 | 0.12 | 0.12 | 93 | |
| 20260506160159 | 64 | 205 | 0.9 | 7.0 | 0.02 | 0.12 | 0.12 | 93 | |
| 20260506155759 | 64 | 262 | 1.7 | 8.7 | 0.03 | 0.12 | 0.12 | 94 | |
| 20260506155600 | 64 | 160 | 2.6 | 8.7 | 0.03 | 0.12 | 0.12 | 93 | |
| 20260506155358 | 64 | 163 | 2.6 | 8.7 | 0.03 | 0.12 | 0.12 | 94 | |
| 20260506155000 | 63 | 187 | 1.7 | 7.0 | 0.04 | 0.12 | 0.12 | 93 | |
| 20260506154758 | 63 | 209 | 1.7 | 7.0 | 0.05 | 0.12 | 0.12 | 93 | |
| 20260506154600 | 63 | 231 | 1.7 | 7.8 | 0.05 | 0.12 | 0.12 | 93 | |
| 20260506154359 | 63 | 205 | 1.7 | 7.8 | 0.05 | 0.11 | 0.11 | 93 | |
| 20260506154159 | 63 | 246 | 1.7 | 7.8 | 0.05 | 0.11 | 0.11 | 92 | |
| 20260506154000 | 63 | 137 | 3.5 | 7.8 | 0.06 | 0.11 | 0.11 | 92 | |
| 20260506153559 | 63 | 185 | 0.9 | 5.2 | 0.07 | 0.11 | 0.11 | 92 | |
| 20260506153359 | 63 | 200 | 1.7 | 5.2 | 0.08 | 0.11 | 0.11 | 92 | |
| 20260506153159 | 63 | 189 | 0.9 | 5.2 | 0.08 | 0.11 | 0.11 | 92 | |
| 20260506152758 | 63 | 199 | 0.9 | 6.1 | 0.08 | 0.10 | 0.10 | 92 | |
| 20260506152158 | 64 | 236 | 1.7 | 6.1 | 0.08 | 0.10 | 0.10 | 93 | |
| 20260506151759 | 63 | 251 | 0.9 | 4.3 | 0.08 | 0.10 | 0.10 | 93 | |
| 20260506151559 | 64 | 222 | 0.0 | 3.5 | 0.08 | 0.10 | 0.10 | 93 | |
| 20260506151359 | 63 | 223 | 0.9 | 3.5 | 0.08 | 0.10 | 0.10 | 93 | |
| 20260506151200 | 63 | 209 | 0.9 | 3.5 | 0.08 | 0.10 | 0.10 | 93 | |
| 20260506151000 | 63 | 154 | 0.0 | 1.7 | 0.09 | 0.10 | 0.10 | 92 | |
| 20260506150800 | 63 | 154 | 0.0 | 1.7 | 0.09 | 0.10 | 0.10 | 92 | |
| 20260506150558 | 63 | 154 | 0.0 | 0.9 | 0.09 | 0.10 | 0.10 | 92 | |
| 20260506150359 | 63 | 154 | 0.0 | 1.7 | 0.09 | 0.10 | 0.10 | 92 | |
| 20260506145959 | 63 | 153 | 0.0 | 1.7 | 0.09 | 0.09 | 0.09 | 91 | |
| 20260506145800 | 63 | 147 | 0.9 | 1.7 | 0.09 | 0.09 | 0.09 | 91 | |
| 20260506145559 | 64 | 189 | 0.0 | 1.7 | 0.09 | 0.09 | 0.09 | 91 | |
| 20260506145358 | 64 | 189 | 0.0 | 2.6 | 0.09 | 0.09 | 0.09 | 90 | |
| 20260506145158 | 64 | 195 | 0.0 | 2.6 | 0.09 | 0.09 | 0.09 | 90 | |
| 20260506144959 | 64 | 206 | 0.0 | 2.6 | 0.08 | 0.08 | 0.08 | 90 | |
| 20260506144800 | 64 | 207 | 0.0 | 2.6 | 0.07 | 0.07 | 0.07 | 90 | |
| 20260506144001 | 64 | 207 | 0.0 | 2.6 | 0.05 | 0.05 | 0.05 | 88 | |
| 20260506143800 | 64 | 208 | 0.0 | 2.6 | 0.05 | 0.05 | 0.05 | 88 | |
| 20260506143558 | 64 | 218 | 0.0 | 2.6 | 0.04 | 0.04 | 0.04 | 87 | |
| 20260506143358 | 64 | 218 | 0.9 | 2.6 | 0.03 | 0.03 | 0.03 | 87 | |
| 20260506143200 | 64 | 167 | 0.9 | 3.5 | 0.03 | 0.03 | 0.03 | 87 | |
| 20260506143005 | 64 | 188 | 0.0 | 3.5 | 0.02 | 0.02 | 0.02 | 86 | |
| 20260506142758 | 64 | 188 | 0.0 | 5.2 | 0.02 | 0.02 | 0.02 | 86 | |
| 20260506142559 | 65 | 187 | 0.9 | 5.2 | 0.02 | 0.02 | 0.02 | 86 | |
| 20260506142359 | 65 | 187 | 0.9 | 5.2 | 0.02 | 0.02 | 0.02 | 85 | |
| 20260506142159 | 65 | 200 | 0.9 | 5.2 | 0.02 | 0.02 | 0.02 | 85 | |
| 20260506142006 | 65 | 203 | 1.7 | 6.1 | 0.02 | 0.02 | 0.02 | 85 | |
| 20260506141559 | 65 | 167 | 0.9 | 6.1 | 0.02 | 0.02 | 0.02 | 84 | |
| 20260506141358 | 65 | 184 | 1.7 | 7.0 | 0.02 | 0.02 | 0.02 | 83 | |
| 20260506141200 | 65 | 228 | 1.7 | 7.0 | 0.02 | 0.02 | 0.02 | 83 | |
| 20260506141005 | 66 | 233 | 1.7 | 7.0 | 0.01 | 0.01 | 0.01 | 82 | |
| 20260506140758 | 66 | 221 | 2.6 | 7.0 | 0.01 | 0.01 | 0.01 | 82 | |
| 20260506140558 | 66 | 206 | 2.6 | 7.0 | 0.01 | 0.01 | 0.01 | 82 | |
| 20260506140359 | 66 | 230 | 1.7 | 4.3 | 0.01 | 0.01 | 0.01 | 81 | |
| 20260506140200 | 66 | 234 | 0.9 | 6.1 | 0.01 | 0.01 | 0.01 | 80 | |
| 20260506140005 | 66 | 231 | 0.9 | 8.7 | 0.00 | 0.00 | 0.00 | 80 | |
| 20260506135759 | 67 | 237 | 0.9 | 11.3 | 0.00 | 0.00 | 0.00 | 79 | |
| 20260506135559 | 67 | 227 | 2.6 | 11.3 | 0.00 | 0.00 | 0.00 | 78 | |
| 20260506135359 | 67 | 239 | 1.7 | 11.3 | 0.00 | 0.00 | 0.00 | 78 | |
| 20260506135159 | 67 | 202 | 3.5 | 11.3 | 0.00 | 0.00 | 0.00 | 77 | |
| 20260506135001 | 67 | 228 | 1.7 | 5.2 | 0.00 | 0.00 | 0.00 | 77 | |
| 20260506134759 | 67 | 191 | 0.9 | 5.2 | 0.00 | 0.00 | 0.00 | 77 | |
| 20260506134559 | 67 | 191 | 0.9 | 5.2 | 0.00 | 0.00 | 0.00 | 77 | |
| 20260506134359 | 67 | 191 | 1.7 | 9.6 | 0.00 | 0.00 | 0.00 | 77 | |
| 20260506134158 | 67 | 256 | 0.9 | 9.6 | 0.00 | 0.00 | 0.00 | 76 | |
| 20260506134000 | 67 | 195 | 1.7 | 9.6 | 0.00 | 0.00 | 0.00 | 76 | |
| 20260506133759 | 67 | 233 | 0.9 | 9.6 | 0.00 | 0.00 | 0.00 | 76 | |
| 20260506133400 | 67 | 225 | 2.6 | 7.8 | 0.00 | 0.00 | 0.00 | 75 | |
| 20260506133158 | 67 | 216 | 1.7 | 7.8 | 0.00 | 0.00 | 0.00 | 75 | |
| 20260506133000 | 67 | 237 | 2.6 | 7.8 | 0.00 | 0.00 | 0.00 | 75 | |
| 20260506132759 | 67 | 190 | 2.6 | 7.8 | 0.00 | 0.00 | 0.00 | 75 | |
| 20260506132559 | 67 | 148 | 0.9 | 4.3 | 0.00 | 0.00 | 0.00 | 75 | |
| 20260506132359 | 67 | 195 | 0.9 | 4.3 | 0.00 | 0.00 | 0.00 | 75 | |
| 20260506132159 | 67 | 197 | 1.7 | 7.8 | 0.00 | 0.00 | 0.00 | 74 | |
| 20260506131759 | 67 | 231 | 0.9 | 7.8 | 0.00 | 0.00 | 0.00 | 74 | |
| 20260506131557 | 67 | 231 | 1.7 | 7.8 | 0.00 | 0.00 | 0.00 | 74 | |
| 20260506131359 | 67 | 202 | 2.6 | 7.8 | 0.00 | 0.00 | 0.00 | 75 | |
| 20260506131200 | 67 | 191 | 2.6 | 7.8 | 0.00 | 0.00 | 0.00 | 75 | |
| 20260506130759 | 67 | 195 | 1.7 | 6.1 | 0.00 | 0.00 | 0.00 | 75 | |
| 20260506130600 | 67 | 199 | 1.7 | 6.1 | 0.00 | 0.00 | 0.00 | 75 | |
| 20260506130359 | 67 | 177 | 0.9 | 6.1 | 0.00 | 0.00 | 0.00 | 74 | |
| 20260506130159 | 67 | 172 | 2.6 | 6.1 | 0.00 | 0.00 | 0.00 | 74 | |
| 20260506130006 | 67 | 233 | 1.7 | 5.2 | 0.00 | 0.00 | 0.00 | 74 | |
| 20260506125759 | 67 | 191 | 0.9 | 5.2 | 0.00 | 0.00 | 0.00 | 73 | |
| 20260506125600 | 67 | 183 | 1.7 | 5.2 | 0.00 | 0.00 | 0.00 | 74 | |
| 20260506125358 | 67 | 212 | 2.6 | 5.2 | 0.00 | 0.00 | 0.00 | 74 | |
| 20260506125159 | 67 | 207 | 0.9 | 5.2 | 0.00 | 0.00 | 0.00 | 74 | |
| 20260506124759 | 67 | 206 | 1.7 | 5.2 | 0.00 | 0.00 | 0.00 | 74 | |
| 20260506124558 | 67 | 171 | 2.6 | 5.2 | 0.00 | 0.00 | 0.00 | 73 | |
| 20260506124358 | 67 | 246 | 2.6 | 5.2 | 0.00 | 0.00 | 0.00 | 74 | |
| 20260506124159 | 67 | 171 | 0.9 | 5.2 | 0.00 | 0.00 | 0.00 | 74 | |
| 20260506124000 | 67 | 210 | 0.0 | 5.2 | 0.00 | 0.00 | 0.00 | 74 | |
| 20260506123759 | 67 | 209 | 2.6 | 5.2 | 0.00 | 0.00 | 0.00 | 74 | |
| 20260506123558 | 67 | 224 | 1.7 | 7.0 | 0.00 | 0.00 | 0.00 | 74 | |
| 20260506123400 | 67 | 206 | 1.7 | 7.0 | 0.00 | 0.00 | 0.00 | 75 | |
| 20260506123159 | 67 | 245 | 1.7 | 7.0 | 0.00 | 0.00 | 0.00 | 74 | |
| 20260506123001 | 67 | 236 | 2.6 | 7.0 | 0.00 | 0.00 | 0.00 | 74 | |
| 20260506122758 | 67 | 204 | 1.7 | 6.1 | 0.00 | 0.00 | 0.00 | 74 | |
| 20260506122558 | 67 | 201 | 1.7 | 6.1 | 0.00 | 0.00 | 0.00 | 74 | |
| 20260506122358 | 67 | 249 | 2.6 | 6.1 | 0.00 | 0.00 | 0.00 | 73 | |
| 20260506122200 | 67 | 194 | 2.6 | 6.1 | 0.00 | 0.00 | 0.00 | 73 | |
| 20260506122001 | 67 | 200 | 2.6 | 5.2 | 0.00 | 0.00 | 0.00 | 74 | |
| 20260506121759 | 67 | 199 | 1.7 | 9.6 | 0.00 | 0.00 | 0.00 | 74 | |
| 20260506121358 | 67 | 211 | 1.7 | 10.4 | 0.00 | 0.00 | 0.00 | 74 | |
| 20260506121200 | 67 | 225 | 1.7 | 10.4 | 0.00 | 0.00 | 0.00 | 74 | |
| 20260506121004 | 67 | 231 | 3.5 | 10.4 | 0.00 | 0.00 | 0.00 | 73 | |
| 20260506120758 | 67 | 182 | 2.6 | 10.4 | 0.00 | 0.00 | 0.00 | 73 | |
| 20260506120559 | 67 | 231 | 2.6 | 10.4 | 0.00 | 0.00 | 0.00 | 74 | |
| 20260506120358 | 67 | 156 | 2.6 | 7.8 | 0.00 | 0.00 | 0.00 | 74 | |
| 20260506120159 | 67 | 224 | 1.7 | 7.8 | 0.00 | 0.00 | 0.00 | 74 | |
| 20260506120005 | 67 | 180 | 2.6 | 7.8 | 0.00 | 0.00 | 0.00 | 74 | |
| 20260506115759 | 67 | 201 | 2.6 | 7.8 | 0.00 | 0.00 | 0.00 | 74 | |
| 20260506115558 | 67 | 226 | 2.6 | 7.8 | 0.00 | 0.00 | 0.00 | 74 | |
| 20260506115358 | 67 | 177 | 2.6 | 7.8 | 0.00 | 0.00 | 0.00 | 74 | |
| 20260506115159 | 67 | 221 | 3.5 | 6.1 | 0.00 | 0.00 | 0.00 | 74 | |
| 20260506115000 | 67 | 155 | 3.5 | 6.1 | 0.00 | 0.00 | 0.00 | 74 | |
| 20260506114759 | 67 | 152 | 2.6 | 6.1 | 0.00 | 0.00 | 0.00 | 74 | |
| 20260506114559 | 67 | 165 | 2.6 | 6.1 | 0.00 | 0.00 | 0.00 | 75 | |
| 20260506114400 | 67 | 199 | 1.7 | 6.1 | 0.00 | 0.00 | 0.00 | 75 | |
| 20260506114200 | 67 | 198 | 2.6 | 6.1 | 0.00 | 0.00 | 0.00 | 75 | |
| 20260506114000 | 67 | 137 | 3.5 | 6.1 | 0.00 | 0.00 | 0.00 | 75 | |
| 20260506113600 | 67 | 181 | 1.7 | 7.0 | 0.00 | 0.00 | 0.00 | 75 | |
| 20260506113157 | 67 | 190 | 1.7 | 4.3 | 0.00 | 0.00 | 0.00 | 75 | |
| 20260506113000 | 67 | 175 | 1.7 | 4.3 | 0.00 | 0.00 | 0.00 | 76 | |
| 20260506112801 | 67 | 228 | 2.6 | 4.3 | 0.00 | 0.00 | 0.00 | 76 | |
| 20260506112600 | 66 | 204 | 1.7 | 7.0 | 0.00 | 0.00 | 0.00 | 76 | |
| 20260506112200 | 66 | 189 | 1.7 | 7.0 | 0.00 | 0.00 | 0.00 | 76 | |
| 20260506112004 | 66 | 149 | 2.6 | 7.0 | 0.00 | 0.00 | 0.00 | 76 | |
| 20260506111800 | 66 | 222 | 2.6 | 7.0 | 0.00 | 0.00 | 0.00 | 77 | |
| 20260506111600 | 66 | 186 | 1.7 | 5.2 | 0.00 | 0.00 | 0.00 | 77 | |
| 20260506111400 | 66 | 173 | 1.7 | 5.2 | 0.00 | 0.00 | 0.00 | 77 | |
| 20260506111200 | 66 | 193 | 1.7 | 5.2 | 0.00 | 0.00 | 0.00 | 77 | |
| 20260506111004 | 66 | 201 | 1.7 | 5.2 | 0.00 | 0.00 | 0.00 | 77 | |
| 20260506110800 | 66 | 184 | 2.6 | 5.2 | 0.00 | 0.00 | 0.00 | 77 | |
| 20260506110600 | 66 | 156 | 1.7 | 5.2 | 0.00 | 0.00 | 0.00 | 77 | |
| 20260506110400 | 66 | 205 | 1.7 | 5.2 | 0.00 | 0.00 | 0.00 | 77 | |
| 20260506110200 | 66 | 193 | 1.7 | 6.1 | 0.00 | 0.00 | 0.00 | 77 | |
| 20260506110001 | 66 | 178 | 1.7 | 6.1 | 0.00 | 0.00 | 0.00 | 77 | |
| 20260506105758 | 66 | 157 | 1.7 | 6.1 | 0.00 | 0.00 | 0.00 | 77 | |
| 20260506105558 | 66 | 129 | 2.6 | 13.9 | 0.00 | 0.00 | 0.00 | 77 | |
| 20260506105359 | 66 | 260 | 1.7 | 13.9 | 0.00 | 0.00 | 0.00 | 77 | |
| 20260506105157 | 66 | 214 | 2.6 | 13.9 | 0.00 | 0.00 | 0.00 | 77 | |
| 20260506104959 | 66 | 228 | 3.5 | 13.9 | 0.00 | 0.00 | 0.00 | 77 | |
| 20260506104758 | 66 | 235 | 2.6 | 6.1 | 0.00 | 0.00 | 0.00 | 77 | |
| 20260506104600 | 66 | 179 | 2.6 | 6.1 | 0.00 | 0.00 | 0.00 | 77 | |
| 20260506104400 | 65 | 229 | 1.7 | 6.1 | 0.00 | 0.00 | 0.00 | 78 | |
| 20260506104159 | 65 | 179 | 2.6 | 6.1 | 0.00 | 0.00 | 0.00 | 77 | |
| 20260506103358 | 65 | 234 | 2.6 | 5.2 | 0.00 | 0.00 | 0.00 | 78 | |
| 20260506103158 | 65 | 189 | 1.7 | 4.3 | 0.00 | 0.00 | 0.00 | 78 | |
| 20260506102959 | 65 | 174 | 0.9 | 4.3 | 0.00 | 0.00 | 0.00 | 78 | |
| 20260506102758 | 65 | 165 | 0.9 | 5.2 | 0.00 | 0.00 | 0.00 | 78 | |
| 20260506102559 | 65 | 162 | 2.6 | 5.2 | 0.00 | 0.00 | 0.00 | 78 | |
| 20260506102359 | 65 | 152 | 0.9 | 5.2 | 0.00 | 0.00 | 0.00 | 78 | |
| 20260506102158 | 65 | 183 | 1.7 | 5.2 | 0.00 | 0.00 | 0.00 | 78 | |
| 20260506102000 | 65 | 181 | 1.7 | 4.3 | 0.00 | 0.00 | 0.00 | 78 | |
| 20260506101758 | 65 | 160 | 1.7 | 4.3 | 0.00 | 0.00 | 0.00 | 78 | |
| 20260506101558 | 65 | 170 | 0.9 | 7.0 | 0.00 | 0.00 | 0.00 | 78 |